When you browse on this site, cookies collect data to enhance your experience and personalize the content and advertising you see.
Visit our Privacy Policy to learn more. By continuing to use the site, you agree to this use of cookies and data.
  • In Denmark
  • List of Countries
  • For 7 days
  • Water Temperature
  • Satellite Maps
  • Weather Map
  • Weather Widgets
  • user-avatar
    Login

    Hourly Weather Melbourne

    Today, 20 April, Saturday

    Time Temperature Precipitation Wind Pressure Humidity
    00:00 +16°C° 0 mm 1 mps 767 mmHg 64%
    01:00 +16°C° 0 mm 1 mps 767 mmHg 63%
    02:00 +15°C° 0 mm 1 mps 767 mmHg 60%
    03:00 +15°C° 0 mm 1 mps 767 mmHg 58%
    04:00 +15°C° 0 mm 1 mps 766 mmHg 54%
    05:00 +15°C° 0 mm 1 mps 766 mmHg 53%
    06:00 +15°C° 0 mm 2 mps 766 mmHg 52%
    07:00 +15°C° 0 mm 2 mps 766 mmHg 51%
    08:00 +18°C° 0 mm 2 mps 766 mmHg 46%
    09:00 +21°C° 0 mm 2 mps 766 mmHg 40%
    10:00 +24°C° 0 mm 2 mps 766 mmHg 35%
    11:00 +26°C° 0 mm 2 mps 766 mmHg 33%
    12:00 +28°C° 0 mm 2 mps 765 mmHg 31%
    13:00 +30°C° 0 mm 3 mps 764 mmHg 29%
    14:00 +30°C° 0 mm 3 mps 764 mmHg 30%
    15:00 +30°C° 0 mm 3 mps 763 mmHg 30%
    16:00 +30°C° 0 mm 3 mps 763 mmHg 31%
    17:00 +29°C° 0 mm 3 mps 763 mmHg 37%
    18:00 +27°C° 0 mm 3 mps 763 mmHg 42%
    19:00 +25°C° 0 mm 3 mps 763 mmHg 48%
    20:00 +24°C° 0 mm 3 mps 763 mmHg 49%
    21:00 +24°C° 0 mm 3 mps 763 mmHg 51%
    22:00 +22°C° 0 mm 3 mps 763 mmHg 52%
    23:00 +22°C° 0 mm 3 mps 763 mmHg 52%

    Tomorrow, 21 April, Sunday

    Time Temperature Precipitation Wind Pressure Humidity
    00:00 +22°C° 0 mm 3 mps 763 mmHg 51%
    01:00 +22°C° 0 mm 4 mps 762 mmHg 50%
    02:00 +22°C° 0 mm 4 mps 762 mmHg 50%
    03:00 +22°C° 0 mm 4 mps 762 mmHg 50%
    04:00 +22°C° 0 mm 5 mps 761 mmHg 50%
    05:00 +22°C° 0 mm 5 mps 762 mmHg 50%
    06:00 +22°C° 0 mm 5 mps 762 mmHg 50%
    07:00 +22°C° 0 mm 6 mps 762 mmHg 50%
    08:00 +23°C° 0 mm 6 mps 762 mmHg 49%
    09:00 +23°C° 0 mm 6 mps 762 mmHg 48%
    10:00 +24°C° 0 mm 6 mps 762 mmHg 47%
    11:00 +26°C° 0 mm 6 mps 762 mmHg 46%
    12:00 +26°C° 0 mm 5 mps 762 mmHg 45%
    13:00 +27°C° 0 mm 5 mps 762 mmHg 44%
    14:00 +27°C° 0 mm 4 mps 762 mmHg 46%
    15:00 +26°C° 0 mm 2 mps 762 mmHg 48%
    16:00 +26°C° 0 mm 1 mps 762 mmHg 49%
    17:00 +25°C° 0.4 mm 2 mps 762 mmHg 56%
    18:00 +22°C° 0.4 mm 3 mps 763 mmHg 63%
    19:00 +21°C° 0.4 mm 4 mps 763 mmHg 69%
    20:00 +20°C° 0 mm 4 mps 764 mmHg 74%
    21:00 +19°C° 0 mm 4 mps 764 mmHg 79%
    22:00 +18°C° 0 mm 3 mps 765 mmHg 84%
    23:00 +17°C° 0 mm 3 mps 765 mmHg 83%

    Day after tomorrow, 22 April, Monday

    Time Temperature Precipitation Wind Pressure Humidity
    00:00 +17°C° 0 mm 3 mps 765 mmHg 82%
    01:00 +17°C° 0 mm 4 mps 765 mmHg 81%
    02:00 +17°C° 0 mm 3 mps 765 mmHg 81%
    03:00 +17°C° 0 mm 3 mps 765 mmHg 82%
    04:00 +16°C° 0 mm 3 mps 765 mmHg 82%
    05:00 +16°C° 0.1 mm 3 mps 765 mmHg 82%
    06:00 +16°C° 0.1 mm 3 mps 766 mmHg 81%
    07:00 +15°C° 0.1 mm 4 mps 766 mmHg 81%
    08:00 +15°C° 0.1 mm 4 mps 766 mmHg 79%
    09:00 +16°C° 0.1 mm 3 mps 767 mmHg 77%
    10:00 +16°C° 0.1 mm 3 mps 767 mmHg 75%
    11:00 +16°C° 0 mm 3 mps 767 mmHg 72%
    12:00 +17°C° 0 mm 3 mps 767 mmHg 69%
    13:00 +17°C° 0 mm 3 mps 767 mmHg 66%
    14:00 +17°C° 0 mm 4 mps 767 mmHg 64%
    15:00 +17°C° 0 mm 4 mps 767 mmHg 63%
    16:00 +17°C° 0 mm 4 mps 767 mmHg 61%
    17:00 +17°C° 0 mm 4 mps 767 mmHg 63%
    18:00 +15°C° 0 mm 4 mps 768 mmHg 64%
    19:00 +15°C° 0 mm 4 mps 768 mmHg 66%
    20:00 +14°C° 0 mm 3 mps 769 mmHg 68%
    21:00 +14°C° 0 mm 3 mps 769 mmHg 69%
    22:00 +14°C° 0 mm 3 mps 769 mmHg 71%
    23:00 +13°C° 0 mm 3 mps 769 mmHg 73%

    23 April, Tuesday

    Time Temperature Precipitation Wind Pressure Humidity
    00:00 +13°C° 0 mm 3 mps 769 mmHg 74%
    01:00 +14°C° 0 mm 2 mps 768 mmHg 76%
    02:00 +13°C° 0 mm 2 mps 768 mmHg 77%
    03:00 +13°C° 0 mm 2 mps 768 mmHg 78%
    04:00 +13°C° 0 mm 2 mps 768 mmHg 80%
    05:00 +13°C° 0 mm 2 mps 768 mmHg 79%
    06:00 +14°C° 0 mm 2 mps 769 mmHg 79%
    07:00 +14°C° 0 mm 2 mps 769 mmHg 79%
    08:00 +15°C° 0 mm 2 mps 769 mmHg 75%
    09:00 +16°C° 0 mm 1 mps 769 mmHg 71%
    10:00 +18°C° 0 mm 1 mps 769 mmHg 68%
    11:00 +19°C° 0 mm 1 mps 768 mmHg 64%
    12:00 +20°C° 0 mm 1 mps 768 mmHg 60%
    13:00 +21°C° 0 mm 2 mps 767 mmHg 56%
    14:00 +21°C° 0 mm 2 mps 767 mmHg 57%
    15:00 +21°C° 0 mm 3 mps 767 mmHg 58%
    16:00 +20°C° 0 mm 4 mps 766 mmHg 58%
    17:00 +19°C° 0 mm 3 mps 767 mmHg 64%
    18:00 +18°C° 0 mm 3 mps 768 mmHg 70%
    19:00 +16°C° 0 mm 3 mps 768 mmHg 75%
    20:00 +14°C° 0 mm 3 mps 768 mmHg 78%
    21:00 +15°C° 0 mm 2 mps 769 mmHg 81%
    22:00 +14°C° 0 mm 2 mps 769 mmHg 84%
    23:00 +14°C° 0 mm 2 mps 769 mmHg 85%

    24 April, Wednesday

    Time Temperature Precipitation Wind Pressure Humidity
    00:00 +14°C° 0 mm 2 mps 768 mmHg 86%
    01:00 +14°C° 0 mm 2 mps 768 mmHg 87%
    02:00 +13°C° 0 mm 1 mps 768 mmHg 88%
    03:00 +13°C° 0 mm 1 mps 768 mmHg 88%
    04:00 +12°C° 0 mm 0 mps 767 mmHg 89%
    05:00 +12°C° 0 mm 0 mps 768 mmHg 89%
    06:00 +12°C° 0 mm 0 mps 768 mmHg 90%
    07:00 +11°C° 0 mm 0 mps 768 mmHg 90%
    08:00 +14°C° 0 mm 1 mps 768 mmHg 83%
    09:00 +15°C° 0 mm 1 mps 768 mmHg 75%
    10:00 +18°C° 0 mm 1 mps 768 mmHg 68%
    11:00 +19°C° 0 mm 1 mps 767 mmHg 62%
    12:00 +20°C° 0 mm 1 mps 767 mmHg 57%
    13:00 +22°C° 0 mm 1 mps 766 mmHg 52%
    14:00 +20°C° 0 mm 2 mps 766 mmHg 52%
    15:00 +20°C° 0 mm 3 mps 765 mmHg 53%
    16:00 +20°C° 0 mm 3 mps 765 mmHg 53%
    17:00 +18°C° 0 mm 2 mps 765 mmHg 57%
    18:00 +17°C° 0 mm 2 mps 766 mmHg 61%
    19:00 +15°C° 0 mm 1 mps 766 mmHg 66%
    20:00 +15°C° 0 mm 1 mps 766 mmHg 67%
    21:00 +15°C° 0 mm 1 mps 766 mmHg 69%
    22:00 +14°C° 0 mm 1 mps 766 mmHg 70%
    23:00 +14°C° 0 mm 1 mps 766 mmHg 73%

    25 April, Thursday

    Time Temperature Precipitation Wind Pressure Humidity
    00:00 +13°C° 0 mm 2 mps 766 mmHg 76%
    01:00 +12°C° 0 mm 3 mps 766 mmHg 79%
    02:00 +12°C° 0 mm 3 mps 766 mmHg 82%
    03:00 +12°C° 0 mm 3 mps 766 mmHg 85%
    04:00 +12°C° 0 mm 3 mps 766 mmHg 88%
    05:00 +12°C° 0 mm 3 mps 766 mmHg 88%
    06:00 +12°C° 0 mm 3 mps 766 mmHg 88%
    07:00 +12°C° 0 mm 3 mps 767 mmHg 88%
    08:00 +13°C° 0 mm 3 mps 767 mmHg 81%
    09:00 +14°C° 0 mm 3 mps 767 mmHg 73%
    10:00 +16°C° 0 mm 3 mps 767 mmHg 66%
    11:00 +17°C° 0 mm 3 mps 766 mmHg 60%
    12:00 +18°C° 0 mm 3 mps 766 mmHg 55%
    13:00 +19°C° 0 mm 3 mps 765 mmHg 49%
    14:00 +19°C° 0 mm 3 mps 765 mmHg 49%
    15:00 +19°C° 0 mm 4 mps 765 mmHg 49%
    16:00 +19°C° 0 mm 4 mps 765 mmHg 49%
    17:00 +18°C° 0 mm 4 mps 765 mmHg 54%
    18:00 +15°C° 0 mm 4 mps 765 mmHg 59%
    19:00 +14°C° 0 mm 3 mps 766 mmHg 63%
    20:00 +14°C° 0 mm 3 mps 766 mmHg 66%
    21:00 +13°C° 0 mm 4 mps 766 mmHg 68%
    22:00 +12°C° 0 mm 4 mps 766 mmHg 70%
    23:00 +12°C° 0 mm 4 mps 766 mmHg 73%
    Show more